| time (UTC) | temp C | wind direction | speed KPH | gust KPH | rain 1hr cm | rain 24hr cm | rain mn cm | humidity % | barometer mb |
| 20260906100033 | 17 | 109 | 0.0 | 1.6 | 0.00 | 0.00 | 0.00 | 95 | 1017.5 |
| 20260906094516 | 17 | 109 | 0.0 | 1.6 | 0.00 | 0.00 | 0.00 | 95 | 1017.5 |
| 20260906093006 | 17 | 109 | 0.0 | 0.0 | 0.00 | 0.00 | 0.00 | 95 | 1017.5 |
| 20260906091553 | 17 | 109 | 0.0 | 1.6 | 0.00 | 0.00 | 0.00 | 95 | 1017.4 |
| 20260906090045 | 18 | 109 | 0.0 | 1.6 | 0.00 | 0.00 | 0.00 | 94 | 1017.2 |
| 20260906084533 | 18 | 109 | 0.0 | 3.2 | 0.00 | 0.00 | 0.00 | 94 | 1017.3 |
| 20260906083019 | 18 | 52 | 0.0 | 6.4 | 0.00 | 0.00 | 0.00 | 93 | 1017.1 |
| 20260906081512 | 18 | 62 | 0.0 | 4.8 | 0.00 | 0.00 | 0.00 | 93 | 1017.2 |
| 20260906080109 | 19 | 80 | 0.0 | 4.8 | 0.00 | 0.00 | 0.00 | 93 | 1017.1 |
| 20260906080002 | 19 | 80 | 0.0 | 4.8 | 0.00 | 0.00 | 0.00 | 93 | 1017.1 |
| 20260906074553 | 20 | 137 | 1.6 | 4.8 | 0.00 | 0.00 | 0.00 | 93 | 1017.1 |
| 20260906073046 | 20 | 192 | 0.0 | 3.2 | 0.00 | 0.00 | 0.00 | 92 | 1017.2 |
| 20260906071534 | 20 | 196 | 1.6 | 4.8 | 0.00 | 0.00 | 0.00 | 92 | 1017.1 |
| 20260906070023 | 20 | 73 | 0.0 | 6.4 | 0.00 | 0.03 | 0.00 | 91 | 1017.0 |
| 20260906064522 | 20 | 40 | 0.0 | 4.8 | 0.00 | 0.03 | 0.00 | 91 | 1017.0 |
| 20260906063004 | 20 | 142 | 1.6 | 9.7 | 0.00 | 0.03 | 0.00 | 91 | 1017.1 |
| 20260906061556 | 21 | 127 | 1.6 | 6.4 | 0.00 | 0.03 | 0.00 | 90 | 1017.1 |
| 20260906054529 | 21 | 43 | 3.2 | 9.7 | 0.00 | 0.03 | 0.00 | 90 | 1016.6 |
| 20260906053023 | 21 | 165 | 0.0 | 6.4 | 0.00 | 0.03 | 0.00 | 90 | 1016.6 |
| 20260906051516 | 21 | 104 | 3.2 | 9.7 | 0.00 | 0.03 | 0.00 | 91 | 1016.5 |
| 20260906050014 | 21 | 124 | 0.0 | 3.2 | 0.00 | 0.03 | 0.00 | 90 | 1016.3 |
| 20260906044558 | 21 | 126 | 0.0 | 3.2 | 0.00 | 0.03 | 0.00 | 90 | 1016.3 |
| 20260906043047 | 21 | 128 | 0.0 | 3.2 | 0.00 | 0.03 | 0.00 | 89 | 1016.3 |
| 20260906041537 | 22 | 120 | 0.0 | 3.2 | 0.00 | 0.03 | 0.00 | 89 | 1016.3 |
| 20260906040034 | 22 | 121 | 1.6 | 4.8 | 0.00 | 0.03 | 0.03 | 89 | 1016.2 |
| 20260906034506 | 22 | 16 | 1.6 | 8.0 | 0.00 | 0.03 | 0.03 | 89 | 1016.0 |
| 20260906033055 | 22 | 321 | 1.6 | 8.0 | 0.00 | 0.03 | 0.03 | 89 | 1015.9 |
| 20260906031613 | 22 | 15 | 1.6 | 8.0 | 0.00 | 0.03 | 0.03 | 88 | 1015.8 |
| 20260906030050 | 22 | 30 | 0.0 | 3.2 | 0.00 | 0.03 | 0.03 | 88 | 1015.9 |
| 20260906024551 | 22 | 30 | 0.0 | 6.4 | 0.00 | 0.03 | 0.03 | 88 | 1016.0 |
| 20260906023038 | 22 | 77 | 0.0 | 8.0 | 0.00 | 0.03 | 0.03 | 88 | 1015.8 |
| 20260906021523 | 22 | 303 | 0.0 | 6.4 | 0.00 | 0.03 | 0.03 | 88 | 1015.9 |
| 20260906020013 | 22 | 61 | 0.0 | 4.8 | 0.00 | 0.03 | 0.03 | 88 | 1015.6 |
| 20260906014510 | 22 | 119 | 1.6 | 6.4 | 0.00 | 0.03 | 0.03 | 87 | 1015.4 |
| 20260906013054 | 22 | 135 | 0.0 | 11.3 | 0.00 | 0.03 | 0.03 | 88 | 1015.4 |
| 20260906011542 | 22 | 76 | 1.6 | 14.5 | 0.00 | 0.03 | 0.03 | 88 | 1015.2 |
| 20260906010036 | 22 | 165 | 3.2 | 12.9 | 0.00 | 0.03 | 0.03 | 87 | 1015.1 |
| 20260906004525 | 22 | 128 | 0.0 | 12.9 | 0.00 | 0.03 | 0.03 | 88 | 1015.1 |
| 20260906003023 | 22 | 115 | 4.8 | 12.9 | 0.00 | 0.03 | 0.03 | 88 | 1014.9 |
| 20260906001513 | 23 | 61 | 1.6 | 6.4 | 0.00 | 0.03 | 0.03 | 87 | 1014.6 |
| 20260906000052 | 23 | 207 | 1.6 | 17.7 | 0.00 | 0.03 | 0.03 | 87 | 1014.3 |
| 20260905234535 | 24 | 359 | 3.2 | 12.9 | 0.00 | 0.03 | 0.03 | 85 | 1014.3 |
| 20260905233023 | 25 | 304 | 4.8 | 19.3 | 0.00 | 0.03 | 0.03 | 84 | 1014.0 |
| 20260905231514 | 26 | 150 | 3.2 | 14.5 | 0.00 | 0.03 | 0.03 | 83 | 1013.9 |
| 20260905230008 | 26 | 261 | 3.2 | 12.9 | 0.00 | 0.03 | 0.03 | 82 | 1013.8 |
| 20260905224556 | 27 | 67 | 3.2 | 9.7 | 0.00 | 0.03 | 0.03 | 80 | 1013.6 |
| 20260905223046 | 27 | 89 | 3.2 | 8.0 | 0.00 | 0.03 | 0.03 | 79 | 1013.1 |
| 20260905221536 | 28 | 157 | 3.2 | 16.1 | 0.00 | 0.03 | 0.03 | 75 | 1013.0 |
| 20260905220023 | 28 | 67 | 3.2 | 9.7 | 0.00 | 0.03 | 0.03 | 74 | 1012.7 |
| 20260905214516 | 28 | 62 | 3.2 | 12.9 | 0.00 | 0.03 | 0.03 | 76 | 1012.7 |
| 20260905213009 | 28 | 198 | 3.2 | 17.7 | 0.00 | 0.03 | 0.03 | 75 | 1012.6 |
| 20260905211559 | 28 | 51 | 3.2 | 19.3 | 0.00 | 0.03 | 0.03 | 78 | 1012.6 |
| 20260905210059 | 28 | 348 | 6.4 | 17.7 | 0.00 | 0.03 | 0.03 | 78 | 1012.5 |
| 20260905204541 | 28 | 44 | 3.2 | 12.9 | 0.00 | 0.03 | 0.03 | 77 | 1012.5 |
| 20260905203034 | 29 | 329 | 6.4 | 16.1 | 0.00 | 0.03 | 0.03 | 75 | 1012.6 |
| 20260905201521 | 29 | 333 | 3.2 | 17.7 | 0.00 | 0.03 | 0.03 | 77 | 1012.6 |
| 20260905200012 | 28 | 1 | 3.2 | 9.7 | 0.00 | 0.03 | 0.03 | 79 | 1012.9 |
| 20260905194506 | 28 | 36 | 4.8 | 14.5 | 0.00 | 0.03 | 0.03 | 79 | 1012.9 |
| 20260905193051 | 28 | 121 | 1.6 | 9.7 | 0.00 | 0.03 | 0.03 | 77 | 1012.8 |
| 20260905191546 | 28 | 182 | 3.2 | 9.7 | 0.00 | 0.03 | 0.03 | 81 | 1013.0 |
| 20260905190040 | 28 | 6 | 3.2 | 8.0 | 0.00 | 0.03 | 0.03 | 79 | 1013.0 |
| 20260905184518 | 28 | 155 | 1.6 | 4.8 | 0.00 | 0.03 | 0.03 | 79 | 1013.1 |
| 20260905183015 | 29 | 243 | 1.6 | 6.4 | 0.00 | 0.03 | 0.03 | 78 | 1013.2 |
| 20260905181558 | 29 | 101 | 3.2 | 6.4 | 0.00 | 0.03 | 0.03 | 79 | 1013.2 |
| 20260905180111 | 28 | 140 | 1.6 | 4.8 | 0.00 | 0.10 | 0.03 | 80 | 1013.3 |
| 20260905174545 | 28 | 304 | 1.6 | 9.7 | 0.00 | 0.10 | 0.03 | 80 | 1013.4 |
| 20260905173035 | 28 | 211 | 3.2 | 6.4 | 0.00 | 0.10 | 0.03 | 83 | 1013.5 |
| 20260905171539 | 28 | 230 | 3.2 | 11.3 | 0.00 | 0.10 | 0.03 | 81 | 1013.6 |
| 20260905170014 | 28 | 196 | 4.8 | 9.7 | 0.00 | 0.10 | 0.03 | 82 | 1013.9 |
| 20260905164508 | 28 | 155 | 4.8 | 9.7 | 0.00 | 0.10 | 0.03 | 81 | 1014.0 |
| 20260905163055 | 27 | 194 | 4.8 | 11.3 | 0.00 | 0.10 | 0.03 | 84 | 1014.1 |
| 20260905161545 | 27 | 188 | 3.2 | 9.7 | 0.00 | 0.10 | 0.03 | 84 | 1014.2 |
| 20260905160048 | 26 | 193 | 1.6 | 6.4 | 0.00 | 0.10 | 0.03 | 86 | 1014.3 |
| 20260905154521 | 26 | 198 | 1.6 | 6.4 | 0.00 | 0.10 | 0.03 | 86 | 1014.2 |
| 20260905153019 | 26 | 165 | 1.6 | 6.4 | 0.00 | 0.10 | 0.03 | 85 | 1014.2 |
| 20260905151506 | 26 | 171 | 3.2 | 6.4 | 0.00 | 0.10 | 0.03 | 86 | 1014.1 |
| 20260905150052 | 25 | 170 | 3.2 | 6.4 | 0.00 | 0.10 | 0.03 | 89 | 1014.0 |
| 20260905144536 | 24 | 175 | 1.6 | 4.8 | 0.00 | 0.10 | 0.03 | 90 | 1014.3 |
| 20260905143029 | 23 | 175 | 1.6 | 4.8 | 0.00 | 0.10 | 0.03 | 91 | 1014.2 |
| 20260905141514 | 23 | 188 | 0.0 | 3.2 | 0.00 | 0.10 | 0.03 | 90 | 1014.1 |
| 20260905140007 | 23 | 189 | 0.0 | 1.6 | 0.00 | 0.10 | 0.03 | 92 | 1013.9 |
| 20260905134558 | 23 | 189 | 3.2 | 6.4 | 0.00 | 0.10 | 0.03 | 92 | 1013.9 |
| 20260905133047 | 23 | 191 | 1.6 | 4.8 | 0.00 | 0.10 | 0.03 | 93 | 1013.8 |
| 20260905131538 | 22 | 196 | 0.0 | 3.2 | 0.00 | 0.10 | 0.03 | 94 | 1013.7 |
| 20260905130019 | 22 | 196 | 1.6 | 4.8 | 0.00 | 0.10 | 0.03 | 95 | 1013.7 |
| 20260905124508 | 22 | 195 | 0.0 | 3.2 | 0.00 | 0.10 | 0.03 | 96 | 1013.4 |
| 20260905123005 | 21 | 198 | 0.0 | 4.8 | 0.00 | 0.10 | 0.03 | 96 | 1013.2 |
| 20260905121559 | 21 | 200 | 0.0 | 3.2 | 0.00 | 0.10 | 0.03 | 96 | 1013.1 |
| 20260905120100 | 21 | 200 | 0.0 | 1.6 | 0.00 | 0.10 | 0.03 | 96 | 1013.2 |
| 20260905114537 | 21 | 200 | 0.0 | 4.8 | 0.00 | 0.10 | 0.03 | 97 | 1013.2 |
| 20260905113030 | 21 | 201 | 0.0 | 0.0 | 0.00 | 0.10 | 0.03 | 97 | 1012.9 |
| 20260905111530 | 21 | 201 | 0.0 | 0.0 | 0.00 | 0.10 | 0.03 | 97 | 1012.7 |
| 20260905110020 | 21 | 201 | 0.0 | 3.2 | 0.00 | 0.10 | 0.03 | 97 | 1012.6 |
| 20260905104508 | 21 | 206 | 1.6 | 6.4 | 0.00 | 0.10 | 0.03 | 97 | 1012.5 |
| 20260905103101 | 21 | 188 | 0.0 | 1.6 | 0.00 | 0.10 | 0.03 | 96 | 1012.5 |
| 20260905101547 | 21 | 189 | 0.0 | 1.6 | 0.00 | 0.10 | 0.03 | 96 | 1012.4 |